Address 0x6b99b14cbed12e1f2b8c70681cce0874e24661ee 3

Txn Hash Method
Block
From
To
Value [Txn Fee]
0xfe910279eb964c15081a880a7acf7873046551244ca02f5148123c03a3b6995cTransfer*19982572022-10-03 9:14:005 hrs 55 mins ago0x6b99b14cbed12e1f2b8c70681cce0874e24661eeOUTMoonbeam: Xtokens0 GLMR0.00448253
0x75798d02cca84d07e3e386a458192b91f452efea2f593d334a00ccd1be83b768Swap Exact Token...19982552022-10-03 9:13:305 hrs 56 mins ago0x6b99b14cbed12e1f2b8c70681cce0874e24661eeOUT StellaSwap: Router v2.10 GLMR0.0551502
0xb1b8d82d50b0db8b44f555fb719a4e561a69e8f65af6d4742c4248cebc6705ddTransfer*19978842022-10-03 7:57:427 hrs 12 mins ago0x6b99b14cbed12e1f2b8c70681cce0874e24661eeOUTMoonbeam: Xtokens0 GLMR0.00448253
0x09271b4399c2454da6787cfab0276e7d336781f18c9e816232d78db65a0290f5Swap Exact Token...19978822022-10-03 7:57:187 hrs 12 mins ago0x6b99b14cbed12e1f2b8c70681cce0874e24661eeOUT StellaSwap: Router v2.10 GLMR0.0551502
0xf47a85c49e21bd1becc796edd03348411f8b23637affcd0d59a4d1bf5791dae5Transfer*19940792022-10-02 19:06:1220 hrs 3 mins ago0x6b99b14cbed12e1f2b8c70681cce0874e24661eeOUTMoonbeam: Xtokens0 GLMR0.00448253
0x1fba2d26a45711c4fdc6bc34eec958e1a1ab6039a8825a5ef075ebdd0b7b537cSwap Exact Token...19940772022-10-02 19:05:4820 hrs 4 mins ago0x6b99b14cbed12e1f2b8c70681cce0874e24661eeOUT StellaSwap: Router v2.10 GLMR0.0551502
0xa3e031d665bb22c8df158e92c3caf9468571bb012a56332893c531320ff4a1b3Transfer*19933252022-10-02 16:31:0022 hrs 38 mins ago0x6b99b14cbed12e1f2b8c70681cce0874e24661eeOUTMoonbeam: Xtokens0 GLMR0.00448253
0x73b27dd57f3e999d7efaff41113fd5f2546f744d44a3e295f917794caa650d2dSwap Exact Token...19933232022-10-02 16:30:3622 hrs 39 mins ago0x6b99b14cbed12e1f2b8c70681cce0874e24661eeOUT StellaSwap: Router v2.10 GLMR0.0551502
0xd45830601d581e74ccf9c2461e3a2ff39a9f13db974689c962ea56f65dfda473Transfer*19921642022-10-02 12:33:421 day 2 hrs ago0x6b99b14cbed12e1f2b8c70681cce0874e24661eeOUTMoonbeam: Xtokens0 GLMR0.00448253
0xbca3adab17e4e86fa21b171712380b48660aa25a467f98f8f831b1e73fc1cc7fSwap Exact Token...19921622022-10-02 12:33:181 day 2 hrs ago0x6b99b14cbed12e1f2b8c70681cce0874e24661eeOUT StellaSwap: Router v2.10 GLMR0.05378275
0xac2f9f158104e3b43ca15d8c11187c595f9c3ef4b06bf1c5267c6636e26f5488Swap Exact Token...19907462022-10-02 7:44:241 day 7 hrs ago0x6b99b14cbed12e1f2b8c70681cce0874e24661eeOUT StellaSwap: Router v2.10 GLMR0.015993558
0xc9600b431460febea1182bfe5f67f9c6b3ac31cab4e0f63b660ea5db37d39b2dSwap Exact Token...19907032022-10-02 7:35:421 day 7 hrs ago0x6b99b14cbed12e1f2b8c70681cce0874e24661eeOUT StellaSwap: Router v2.10 GLMR0.0551502
0xea53628f9060f95d0b800cce38689e757b9fbb33fedb818b2c35378fa4b582f6Transfer*19905432022-10-02 7:03:121 day 8 hrs ago0x6b99b14cbed12e1f2b8c70681cce0874e24661eeOUTMoonbeam: Xtokens0 GLMR0.00447761
0xb3fef6b873f62c58cfb947f661854bf4f14f49b17e2c5e8fe84ebc922f2b5a56Swap Exact Token...19905412022-10-02 7:02:481 day 8 hrs ago0x6b99b14cbed12e1f2b8c70681cce0874e24661eeOUT StellaSwap: Router v2.10 GLMR0.05670035
0x585b33707649835960ce26ac6e513cdb43e2cbf20af30e326ff57535dc2072e0Transfer*19905312022-10-02 7:00:481 day 8 hrs ago0x6b99b14cbed12e1f2b8c70681cce0874e24661eeOUTMoonbeam: Xtokens0 GLMR0.0044813
0x0c1ddb95cb1ccb975afcc4bbb266776282d8e7bd5e8036dcea95e60752edaedbSwap Exact Token...19905292022-10-02 7:00:181 day 8 hrs ago0x6b99b14cbed12e1f2b8c70681cce0874e24661eeOUT StellaSwap: Router v2.10 GLMR0.0551502
0x7bbfa07c7343ab136372b5c29cd74e3155eb96a0d7af10598fb031cb6729f989Transfer*19899102022-10-02 4:53:301 day 10 hrs ago0x6b99b14cbed12e1f2b8c70681cce0874e24661eeOUTMoonbeam: Xtokens0 GLMR0.00448253
0xca74bcbf09ad43dc36942005579be7c6c942a50475fdfb2d84018d70cb2eae3dSwap Exact Token...19899082022-10-02 4:53:061 day 10 hrs ago0x6b99b14cbed12e1f2b8c70681cce0874e24661eeOUT StellaSwap: Router v2.10 GLMR0.05671715
0xf4d4a57651bb3d54341e0ed2ebcdd383c67135ef27fd2f5ce16fa85f4e5fab2fTransfer*19898902022-10-02 4:49:301 day 10 hrs ago0x6b99b14cbed12e1f2b8c70681cce0874e24661eeOUTMoonbeam: Xtokens0 GLMR0.00448253
0x5f31b9c9f6caeb63edb72f127ff6e268853f2a6ae538f2ab25c62a5e5424d3bcSwap Exact Token...19898892022-10-02 4:49:121 day 10 hrs ago0x6b99b14cbed12e1f2b8c70681cce0874e24661eeOUT StellaSwap: Router v2.10 GLMR0.0551502
0x206e7ef567ad60a0d56b2c94a76792070f171d5a5657e99dec876a98eb5dacbcTransfer*19898462022-10-02 4:40:361 day 10 hrs ago0x6b99b14cbed12e1f2b8c70681cce0874e24661eeOUTMoonbeam: Xtokens0 GLMR0.00448253
0xc090b78b14ebaeb26839c90bf23647715188327907306db3438e197e371bbb5eSwap Exact Token...19898442022-10-02 4:40:121 day 10 hrs ago0x6b99b14cbed12e1f2b8c70681cce0874e24661eeOUT StellaSwap: Router v2.10 GLMR0.0551502
0x44639388394fdd1ce1ef10d53322159385af4b84677bd10b9969ce9f34b4efdbTransfer*19898012022-10-02 4:31:241 day 10 hrs ago0x6b99b14cbed12e1f2b8c70681cce0874e24661eeOUTMoonbeam: Xtokens0 GLMR0.00448253
0x76bca6ea337e01707c76d5604dd2c8e79fd90ba7fdb99361cc812943ef98af83Swap Exact Token...19897992022-10-02 4:31:001 day 10 hrs ago0x6b99b14cbed12e1f2b8c70681cce0874e24661eeOUT StellaSwap: Router v2.10 GLMR0.0551502
0x7e04bd339d00aa10e1e64393ca8217f5460b0824820e2851f141b09046134803Transfer*19883202022-10-01 23:28:121 day 15 hrs ago0x6b99b14cbed12e1f2b8c70681cce0874e24661eeOUTMoonbeam: Xtokens0 GLMR0.003603656
[ Download CSV Export 
Latest 5 internal transactions
Parent Txn Hash Block From To Value
0x704b032d489753626fe9968f905744616ef894c740d747f94503c2268f6fc72216630382022-08-16 7:36:4848 days 7 hrs ago Beamswap: Router 020x6b99b14cbed12e1f2b8c70681cce0874e24661ee0.067948729378497084 GLMR
0x7be888207cb14a10dd222c1d93fa0eee6042e951bb5aa998eef7a430ccb485dc16472582022-08-14 0:58:4250 days 14 hrs ago StellaSwap: Router v2.10x6b99b14cbed12e1f2b8c70681cce0874e24661ee10,536.754930809489744873 GLMR
0xe0c3814347137a58b7191769c7c4e4ea6a8b1d12825aae9a31839fba73a49b3f16232272022-08-10 13:54:4254 days 1 hr ago StellaSwap: Router v2.10x6b99b14cbed12e1f2b8c70681cce0874e24661ee1.322232169873447252 GLMR
0xd61ea9e29ccf34428bbd1fe9b6c03bc196d484e610ac5133d0a87a213437d3c216232252022-08-10 13:54:1854 days 1 hr ago StellaSwap: Router v2.10x6b99b14cbed12e1f2b8c70681cce0874e24661ee0.919372114546507488 GLMR
0xd12dcfee08f8d5407f807c9901546b17da38a1bbbe792bbefa40a20fea71a79616166842022-08-09 15:10:2454 days 23 hrs ago StellaSwap: Router v2.10x6b99b14cbed12e1f2b8c70681cce0874e24661ee13.970335556276749556 GLMR
[ Download CSV Export 
Loading

Contract Name:
0

Compiler Version
0

Optimization Enabled:
0

Other Settings:
-NA-
Block Transaction Gas Used Reward
Age Block Fee Address BC Fee Address Voting Power Jailed Incoming
Block Uncle Number Difficulty Gas Used Reward
Loading
Make sure to use the "Vote Down" button for any spammy posts, and the "Vote Up" for interesting conversations.